Satellite-Ground Cal/Val Site Overpasses Predictions

Prediction of Satellite NPP Overpassing Cal/Val Site: Antarctic Dome C

Ground Cal/Val Site Location: Latitude: -75.10, Longitude: 123.35; Satellite-Ground Site NADIR distance within 100 km.

Table of predicted overpasses for the next 14.0 days since TLE Epoch: 4/8/2023
Interval Starting Time Ending Time Minimum Distance Time Minimum Distance (km)
1 04/09/2023 15:03:38 04/09/2023 15:04:01 04/09/2023 15:03:50 60.98
2 04/10/2023 14:44:48 04/10/2023 14:45:13 04/10/2023 14:45:00 48.16
3 04/11/2023 07:46:29 04/11/2023 07:46:51 04/11/2023 07:46:40 66.10
4 04/12/2023 07:27:38 04/12/2023 07:28:04 04/12/2023 07:27:51 41.87
5 04/14/2023 15:10:07 04/14/2023 15:10:11 04/14/2023 15:10:09 98.55
6 04/15/2023 14:51:06 04/15/2023 14:51:35 04/15/2023 14:51:20 12.70
7 04/17/2023 07:33:56 04/17/2023 07:34:25 04/17/2023 07:34:11 5.76
8 04/20/2023 14:57:24 04/20/2023 14:57:53 04/20/2023 14:57:39 23.69
